Simultaneous Nadir Overpasses (SNOs) Predictions

Prediction of SNOs between GOES-17 and NOAA-19 Satellite Orbit:

Table of predicted SNOs for the next 14.0 days since TLE Epoch: 2/13/2025
Index Date Time (GOES-17) GOES-17 Lat,Lon NOAA-19 Lat,Lon Distance(km) Time Diff (sec)
1 02/14/2025 16:38:48 -0.00,-104.68 0.12,-105.28 68.92 80
2 02/15/2025 16:28:55 -0.01,-104.68 -0.58,-102.24 279.15 80
3 02/18/2025 04:47:45 0.01,-104.69 -0.46,-106.73 231.82 80
4 02/19/2025 04:32:32 0.01,-104.69 0.21,-103.67 116.07 80
5 02/20/2025 04:19:59 0.00,-104.69 0.94,-100.63 463.85 80
6 02/21/2025 16:51:21 -0.00,-104.68 0.78,-108.17 397.03 80
7 02/22/2025 16:38:47 -0.00,-104.68 0.11,-105.11 49.18 80
8 02/23/2025 16:28:55 -0.00,-104.68 -0.62,-102.07 298.64 80
9 02/26/2025 04:47:43 0.01,-104.70 -0.40,-106.55 211.37 80
10 02/27/2025 04:32:29 0.01,-104.70 0.29,-103.50 136.30 80
